Regional Weather Roundup
Issued by NWS Memphis, TN

Home | Current Version | Previous Version | Text Only | Print | Product List | Glossary On
Versions: 1 2 3 4 5 6 7 8 9 10 11 12 13 14 15 16 17 18 19 20 21 22 23 24 25 26 27 28 29 30 31 32 33 34 35 36 37 38 39 40 41 42 43 44 45 46 47 48 49 50
000
ASUS44 KMEG 281610
RWRMEG
MEMPHIS CWA HOURLY WEATHER ROUNDUP
NATIONAL WEATHER SERVICE MEMPHIS TN
1100 AM CDT THU JUL 28 2016

...WEST TENNESSEE...

CITY           SKY/WX    TMP DP  RH WIND       PRES   REMARKS
MEMPHIS INTL   CLOUDY    82  75  79 SW7       29.96R
NWS MEMPHIS      N/A     80 N/A N/A MISG        N/A
JACKSON        CLOUDY    81  77  88 W8        29.94F
LEXINGTON      CLOUDY    79  75  89 W7        29.94R
DYERSBURG      PTSUNNY   81  73  78 CALM      29.94S
UNION CITY     PTSUNNY   82  77  83 NW7       29.92S HX  91
PARIS          CLOUDY    73  72  94 CALM      29.95R


...EASTERN ARKANSAS...

CITY           SKY/WX    TMP DP  RH WIND       PRES   REMARKS
JONESBORO      MOSUNNY   85  76  74 CALM      29.92F HX  94
WEST MEMPHIS   CLOUDY    79  75  87 VRB5      29.95R
BATESVILLE     SUNNY     84  75  74 NW5       29.95R HX  92
NEWPORT        CLOUDY    87  76  69 SW7       29.95S HX  97
WALNUT RIDGE   MOSUNNY   84  73  70 SW5       29.92S HX  91
BLYTHEVILLE    PTSUNNY   83  76  79 VRB6      29.94S HX  91
NW BLYTHEVILLE PTSUNNY   84  73  70 SW6       29.93S HX  91
SEARCY         PTSUNNY   84  77  79 SW3       29.97R HX  94
STUTTGART      CLOUDY    82  73  74 SW7       29.97R
PINE BLUFF     CLOUDY    81  73  76 SW10      29.98R
MONTICELLO     CLOUDY    80  75  84 W8        30.01R


...NORTH MISSISSIPPI...

CITY           SKY/WX    TMP DP  RH WIND       PRES   REMARKS
TUPELO         CLOUDY    82  74  76 S6        29.98R
OXFORD         CLOUDY    77  72  83 SW6       30.01R
BATESVILLE     CLOUDY    80  74  82 SW8       29.99R
OLIVE BRANCH   CLOUDY   N/A N/A N/A W7        29.96S
TUNICA         CLOUDY    81  77  89 S9        29.98R
CORINTH        DRIZZLE   79  73  83 W7        29.96S
GREENWOOD      LGT RAIN  79  73  82 SW9       30.01R
COLUMBUS       CLOUDY    82  77  83 S13       29.99  HX  91
GOLDEN TRIANGL CLOUDY    81  70  69 SW12      30.00R


...SOUTHEAST MISSOURI...

CITY           SKY/WX    TMP DP  RH WIND       PRES   REMARKS
KENNETT        PTSUNNY   84  75  74 VRB5      29.92S HX  92
WEST PLAINS    MOSUNNY   84  74  71 VRB3      29.98F HX  91
POPLAR BLUFF   SUNNY     84  74  71 VRB3      29.91S HX  91
CAPE GIRARDEAU CLOUDY    80  73  79 W5        29.92S


...NORTHWEST ALABAMA...

CITY           SKY/WX    TMP DP  RH WIND       PRES   REMARKS
MUSCLE SHOALS  LGT RAIN  78  74  87 W13       29.98R


...MIDDLE TENNESSEE...

CITY           SKY/WX    TMP DP  RH WIND       PRES   REMARKS
NASHVILLE      LGT RAIN  76  74  93 S5        29.93S FOG
CLARKSVILLE    CLOUDY    77  72  84 N6        29.94R
COLUMBIA       PTSUNNY  N/A N/A N/A SW9       29.92R


...WESTERN KENTUCKY...

CITY           SKY/WX    TMP DP  RH WIND       PRES   REMARKS
PADUCAH        CLOUDY    80  74  81 W5        29.92S
FORT CAMPBELL  CLOUDY    75  72  88 N5        29.93S


...CENTRAL ARKANSAS...

CITY           SKY/WX    TMP DP  RH WIND       PRES   REMARKS
LITTLE ROCK    MOSUNNY   88  75  65 SW6       29.97R HX  97


SKY/WX REPORTED AS FAIR MEANS FEW OR NO CLOUDS BELOW
12 THOUSAND FEET.




USA.gov is the U.S. government's official web portal to all federal, state and local government web resources and services.